Corona, CA

2:52 PM PDT on April 24, 2017 (GMT -0700)
Corona Municipal

Weather History for KAJO - March, 2013

Change the Weather History Date:

Friday, March 8, 2013

  Actual Average (KCNO) Record (KCNO)
Temperature  
Mean Temperature 48 °F -  
Max Temperature 52 °F 66 °F 89 °F (2004)
Min Temperature 43 °F 41 °F 33 °F (1999)
Degree Days  
Heating Degree Days 18    
Moisture  
Dew Point 43 °F    
Average Humidity 85    
Maximum Humidity 100    
Minimum Humidity 59    
Precipitation  
Precipitation 0.70 in - - ()
Sea Level Pressure  
Sea Level Pressure 29.90 in    
Wind  
Wind Speed 7 mph (SW)    
Max Wind Speed 18 mph    
Max Gust Speed 23 mph    
Visibility 6 miles    
Events Rain    
Averages and records for this station are not official NWS values.
T = Trace of Precipitation, MM = Missing Value Source: NWS Daily Summary

Daily Weather History Graph

Daily Weather History Graph

Search for Another Location

Airport or City:

Trip Planner

Search our weather history database for the weather conditions in past years. The results will help you decide how hot, cold, wet, or windy it might be!

Date:

Astronomy

Mar. 08, 2013 Rise Set
Actual Time 6:09 AM PST 5:52 PM PST
Civil Twilight 5:44 AM PST 6:17 PM PST
Nautical Twilight 5:15 AM PST 6:46 PM PST
Astronomical Twilight 4:46 AM PST 7:15 PM PST
Moon 3:49 AM PST (3/8) 2:59 PM PST (3/8)
Length of Visible Light 12h 33m
Length of Day
11h 43m
Waning Crescent, 11% of the Moon is Illuminated
Mar 8
Waning Crescent
Mar 11
New
Mar 19
First Quarter
Mar 27
Full
Apr 2
Last Quarter

Hourly Weather History & Observations

Time (PST) Temp. Windchill Dew Point Humidity Pressure Visibility Wind Dir Wind Speed Gust Speed Precip Events Conditions
12:56 AM 48.9 °F - 45.0 °F 86% 29.85 in 10.0 mi ESE 6.9 mph - 0.01 in Rain Light Rain
1:56 AM 46.9 °F - 46.9 °F 100% 29.82 in 5.0 mi ENE 3.5 mph - 0.01 in Rain Rain
2:43 AM 46.4 °F 45.2 °F 46.4 °F 100% 29.79 in 2.5 mi ENE 3.5 mph - 0.03 in Rain Rain
2:56 AM 46.9 °F - 46.9 °F 100% 29.78 in 7.0 mi East 4.6 mph - 0.04 in Rain Rain
3:39 AM 48.2 °F - 48.2 °F 100% 29.77 in 2.0 mi ESE 9.2 mph - 0.07 in Rain Heavy Rain
3:45 AM 48.2 °F - 48.2 °F 100% 29.77 in 3.0 mi SE 6.9 mph - 0.07 in Rain Light Rain
3:56 AM 47.8 °F - 47.8 °F 100% 29.78 in 2.5 mi West 10.4 mph - 0.11 in Rain Heavy Rain
4:07 AM 46.4 °F 40.1 °F 46.4 °F 100% 29.80 in 3.0 mi West 15.0 mph 20.7 mph 0.02 in Rain Rain
4:18 AM 46.4 °F 39.2 °F 46.4 °F 100% 29.80 in 3.0 mi West 18.4 mph 23.0 mph 0.05 in Rain Rain
4:44 AM 44.6 °F 40.2 °F 44.6 °F 100% 29.81 in 7.0 mi West 8.1 mph - 0.07 in Rain Light Rain
4:56 AM 45.0 °F 43.5 °F 45.0 °F 100% 29.80 in 7.0 mi WSW 3.5 mph - 0.08 in Rain Light Rain
5:04 AM 46.4 °F 44.3 °F 46.4 °F 100% 29.81 in 10.0 mi WSW 4.6 mph - 0.00 in Rain Light Rain
5:56 AM 45.0 °F 42.6 °F 45.0 °F 100% 29.81 in 10.0 mi North 4.6 mph - 0.01 in Rain Light Rain
6:56 AM 45.0 °F 42.6 °F 43.0 °F 93% 29.86 in 10.0 mi East 4.6 mph - 0.00 in   Mostly Cloudy
7:56 AM 46.9 °F - 45.9 °F 96% 29.88 in 10.0 mi Calm Calm - 0.00 in   Scattered Clouds
8:56 AM 50.9 °F - 41.0 °F 69% 29.88 in 10.0 mi West 6.9 mph - N/A   Clear
9:56 AM 50.9 °F - 37.9 °F 61% 29.89 in 10.0 mi Variable 5.8 mph - N/A   Mostly Cloudy
10:56 AM 52.0 °F - 37.9 °F 59% 29.90 in 10.0 mi Variable 3.5 mph - N/A   Mostly Cloudy
11:08 AM 50.0 °F - 39.2 °F 66% 29.90 in 2.5 mi SSE 4.6 mph - 0.03 in Rain Heavy Rain
11:18 AM 48.2 °F - 39.2 °F 71% 29.90 in 1.5 mi Calm Calm - 0.09 in Rain Heavy Rain
11:25 AM 48.2 °F - 39.2 °F 71% 29.91 in 1.5 mi NW 11.5 mph - 0.10 in Rain Rain
11:27 AM 48.2 °F - 39.2 °F 71% 29.91 in 2.5 mi WNW 11.5 mph - 0.11 in Rain Rain
11:29 AM 46.4 °F 42.4 °F 39.2 °F 76% 29.91 in 4.0 mi NW 8.1 mph - 0.11 in Rain Rain
11:56 AM 43.9 °F 41.3 °F 39.9 °F 86% 29.91 in 2.0 mi North 4.6 mph - 0.20 in Rain Heavy Rain
12:00 PM 44.6 °F 42.2 °F 41.0 °F 87% 29.92 in 3.0 mi West 4.6 mph - 0.00 in Rain Light Rain
12:15 PM 44.6 °F 40.2 °F 41.0 °F 87% 29.92 in 2.0 mi West 8.1 mph - 0.05 in Rain Heavy Rain
12:30 PM 44.6 °F 40.7 °F 39.2 °F 81% 29.92 in 1.5 mi WSW 6.9 mph - 0.11 in Rain Heavy Rain
12:56 PM 43.9 °F 39.3 °F 39.9 °F 86% 29.91 in 6.0 mi SW 8.1 mph 17.3 mph 0.14 in Rain Light Rain
1:12 PM 44.6 °F 38.1 °F 39.2 °F 81% 29.90 in 2.0 mi SSW 13.8 mph - 0.03 in Rain Light Rain
1:17 PM 44.6 °F 39.7 °F 39.2 °F 81% 29.90 in 4.0 mi SSW 9.2 mph - 0.03 in Rain Light Rain
1:56 PM 48.9 °F - 41.9 °F 77% 29.89 in 10.0 mi SSE 5.8 mph - 0.03 in   Partly Cloudy
2:56 PM 50.9 °F - 37.9 °F 61% 29.89 in 10.0 mi WSW 6.9 mph - N/A   Mostly Cloudy
3:48 PM 51.8 °F - 39.2 °F 62% 29.89 in 9.0 mi Variable 4.6 mph - 0.00 in Rain Light Rain
3:56 PM 50.9 °F - 38.8 °F 63% 29.89 in 10.0 mi West 5.8 mph - 0.00 in Rain Light Rain
4:56 PM 48.9 °F - 39.9 °F 71% 29.91 in 10.0 mi SSW 6.9 mph - 0.00 in Rain Light Rain
5:56 PM 50.0 °F - 41.0 °F 71% 29.93 in 10.0 mi WSW 9.2 mph - 0.00 in   Overcast
6:56 PM 50.0 °F - 41.0 °F 71% 29.96 in 10.0 mi West 8.1 mph - N/A   Overcast
7:56 PM 50.0 °F - 41.9 °F 74% 29.99 in 10.0 mi WSW 9.2 mph 18.4 mph N/A   Overcast
8:56 PM 48.9 °F - 43.0 °F 80% 30.02 in 5.0 mi Variable 3.5 mph - 0.01 in Rain Light Rain
9:46 PM 48.2 °F - 46.4 °F 93% 30.03 in 2.5 mi SSE 3.5 mph - 0.05 in Rain Rain
9:56 PM 47.8 °F - 45.9 °F 93% 30.03 in 8.0 mi Variable 4.6 mph - 0.05 in Rain Light Rain
10:07 PM 48.2 °F - 46.4 °F 93% 30.03 in 10.0 mi East 5.8 mph - 0.00 in Rain Light Rain
10:34 PM 48.2 °F - 46.4 °F 93% 30.04 in 10.0 mi ESE 6.9 mph - 0.00 in Rain Light Rain
10:42 PM 48.2 °F - 46.4 °F 93% 30.03 in 10.0 mi SE 8.1 mph - 0.00 in Rain Light Rain
10:56 PM 47.8 °F - 46.9 °F 97% 30.03 in 10.0 mi SE 5.8 mph - 0.00 in   Overcast
11:56 PM 46.9 °F - 46.9 °F 100% 30.03 in 10.0 mi ESE 4.6 mph - 0.01 in   Mostly Cloudy